Location: Newark
(43.6583°N, 1.6617°E)
Time: 04:00:27
(UTC+00:00)

Transit 4A - Pass Details

Date: 31 August 2019
Orbit: 865 x 980 km, 66.8° (Epoch: 15 September)

Event Time Altitude Azimuth Distance (km) Brightness Sun altitude
Rises 13:58:15 0° 148° (SSE) 3,662 11.1 45.7°
Reaches altitude 10° 14:03:01 10° 116° (ESE) 2,727 10.3 45.1°
Maximum altitude 14:04:48 11° 100° (E) 2,639 10.1 44.8°
Drops below altitude 10° 14:06:35 10° 83° (E) 2,731 10.1 44.6°
Sets 14:11:21 0° 52° (NE) 3,676 10.6 43.9°
